Change the Weather History Date:

Wednesday, December 25, 2002

  Actual Average Record
Temperature  
Mean Temperature 38 °F 50 °F  
Max Temperature 44 °F 59 °F 81 °F (1942)
Min Temperature 32 °F 40 °F 9 °F (1983)
Degree Days  
Heating Degree Days 27 16  
Month to date heating degree days 369  
Since 1 July heating degree days 694  
Moisture  
Dew Point 28 °F    
Average Humidity 70    
Maximum Humidity 96    
Minimum Humidity 45    
Precipitation  
Precipitation 0.00 in 0.17 in 4.76 in (1926)
Month to date precipitation 5.26  
Year to date precipitation 55.06  
Snow  
Snow 0.00 in - 0.00 in ()
Month to date snowfall  
Since 1 July snowfall  
Snow Depth -    
Sea Level Pressure  
Sea Level Pressure 30.25 in    
Wind  
Wind Speed 9 mph (NW)    
Max Wind Speed 15 mph    
Max Gust Speed 21 mph    
Visibility 10 miles    
Events      
T = Trace of Precipitation, MM = Missing Value Source: NWS Daily Summary

Daily Weather History Graph

Daily Weather History Graph

Search for Another Location

Airport or City:

Trip Planner

Search our weather history database for the weather conditions in past years. The results will help you decide how hot, cold, wet, or windy it might be!

Date:

Astronomy

Dec. 25, 2002 Rise Set
Actual Time 7:06 AM CST 5:13 PM CST
Civil Twilight 6:40 AM CST 5:40 PM CST
Nautical Twilight 6:09 AM CST 6:10 PM CST
Astronomical Twilight 5:40 AM CST 6:40 PM CST
Moon 11:20 PM CST (12/25) 11:37 AM CST (12/25)
Length of Visible Light 11h 00m
Length of Day
10h 06m
Waning Gibbous, 64% of the Moon is Illuminated
Dec 25
Waning Gibbous
Dec 26
Last Quarter
Jan 2
New
Jan 10
First Quarter
Jan 18
Full

Hourly Weather History & Observations

Time (CST) Temp. Windchill Dew Point Humidity Pressure Visibility Wind Dir Wind Speed Gust Speed Precip Events Conditions
12:53 AM 37.0 °F 28.1 °F 28.9 °F 73% 30.12 in 10.0 mi WNW 15.0 mph 20.7 mph N/A   Overcast
1:53 AM 37.0 °F 28.5 °F 28.9 °F 73% 30.14 in 10.0 mi NW 13.8 mph - N/A   Overcast
2:53 AM 37.0 °F 31.0 °F 30.0 °F 76% 30.17 in 10.0 mi NNW 8.1 mph - N/A   Overcast
3:53 AM 36.0 °F 29.0 °F 28.0 °F 73% 30.18 in 10.0 mi North 9.2 mph - N/A   Overcast
4:53 AM 35.1 °F 25.5 °F 26.1 °F 70% 30.19 in 10.0 mi North 15.0 mph - N/A   Overcast
5:10 AM 33.8 °F 25.3 °F 26.6 °F 75% 30.19 in 10.0 mi NNW 11.5 mph - N/A   Scattered Clouds
5:53 AM 33.1 °F 27.7 °F 27.0 °F 78% 30.21 in 10.0 mi NNW 5.8 mph - N/A   Clear
6:53 AM 32.0 °F 26.4 °F 27.0 °F 82% 30.22 in 10.0 mi NNW 5.8 mph - N/A   Clear
7:53 AM 33.1 °F 27.7 °F 27.0 °F 78% 30.24 in 10.0 mi NNW 5.8 mph - N/A   Clear
8:53 AM 35.1 °F 28.6 °F 26.1 °F 70% 30.27 in 10.0 mi NW 8.1 mph - N/A   Clear
9:53 AM 37.9 °F 32.1 °F 26.1 °F 62% 30.31 in 10.0 mi NW 8.1 mph - N/A   Clear
10:53 AM 39.9 °F 32.9 °F 28.0 °F 63% 30.29 in 10.0 mi West 11.5 mph - N/A   Clear
11:53 AM 41.0 °F 34.7 °F 26.1 °F 55% 30.25 in 10.0 mi NW 10.4 mph - N/A   Clear
12:53 PM 42.1 °F 36.6 °F 24.1 °F 49% 30.24 in 10.0 mi NW 9.2 mph - N/A   Clear
1:53 PM 43.0 °F 38.8 °F 24.1 °F 47% 30.23 in 10.0 mi WNW 6.9 mph - N/A   Clear
2:53 PM 43.0 °F 40.3 °F 23.0 °F 45% 30.24 in 10.0 mi Variable 4.6 mph - N/A   Clear
3:53 PM 44.1 °F 40.8 °F 24.1 °F 45% 30.26 in 10.0 mi Variable 5.8 mph - N/A   Clear
4:53 PM 43.0 °F 41.3 °F 27.0 °F 53% 30.27 in 10.0 mi WNW 3.5 mph - N/A   Clear
5:53 PM 41.0 °F - 30.0 °F 65% 30.29 in 10.0 mi Calm Calm - N/A   Clear
6:53 PM 36.0 °F - 28.0 °F 73% 30.29 in 10.0 mi Calm Calm - N/A   Clear
7:53 PM 36.0 °F - 30.9 °F 82% 30.30 in 10.0 mi Calm Calm - N/A   Clear
8:53 PM 35.1 °F - 30.0 °F 82% 30.32 in 10.0 mi Calm Calm - N/A   Clear
9:53 PM 33.1 °F - 30.9 °F 92% 30.32 in 10.0 mi Calm Calm - N/A   Clear
10:53 PM 33.1 °F - 30.0 °F 89% 30.31 in 10.0 mi Calm Calm - N/A   Clear
11:53 PM 32.0 °F - 30.9 °F 96% 30.30 in 10.0 mi Calm Calm - N/A   Clear